EW4156 Weather Reports


time (UTC)temp
F
wind
direction
speed
knots
gust
knots
rain 1hr
in
rain 24hr
in
rain mn
in
humidity
%
barometer
mb
20260504081558 48 306 0.0 0.0 0.00 0.00 0.00 82 1019.7
20260504044526 53 306 0.0 0.9 0.00 0.00 0.00 67 1020.4
20260504043037 54 306 0.0 0.0 0.00 0.00 0.00 67 1020.5
20260504041523 54 306 0.0 0.0 0.00 0.00 0.00 65 1020.6
20260504040024 54 306 0.0 0.0 0.00 0.00 0.00 65 1020.6
20260504034518 55 306 0.0 0.0 0.00 0.00 0.00 64 1020.6
20260504033019 55 306 0.0 0.0 0.00 0.00 0.00 63 1020.7
20260504031518 56 306 0.0 0.0 0.00 0.00 0.00 62 1020.6
20260504030017 57 306 0.0 0.0 0.00 0.00 0.00 60 1020.5
20260504024517 57 306 0.0 0.0 0.00 0.00 0.00 59 1020.5
20260504023019 57 306 0.0 0.9 0.00 0.00 0.00 58 1020.3
20260504021515 57 306 0.0 0.0 0.00 0.00 0.00 57 1020.2
20260504020017 57 306 0.0 0.0 0.00 0.00 0.00 56 1019.9
20260504014515 58 306 0.0 0.0 0.00 0.00 0.00 55 1019.9
20260504013018 59 306 0.0 0.0 0.00 0.00 0.00 53 1019.7
20260504011520 60 306 0.0 0.0 0.00 0.00 0.00 52 1019.4
20260504010012 61 306 0.0 0.0 0.00 0.00 0.00 49 1019.4
20260504004511 62 306 0.0 0.9 0.00 0.00 0.00 47 1019.3
20260504003010 63 319 0.0 0.9 0.00 0.00 0.00 44 1019.1
20260504001509 64 305 0.0 1.7 0.00 0.00 0.00 42 1019.2
20260504000009 65 295 0.9 2.6 0.00 0.00 0.00 39 1019.1
20260503234508 66 36 0.9 3.5 0.00 0.00 0.00 38 1019.1
20260503233007 67 307 0.0 4.3 0.00 0.00 0.00 40 1019.0
20260503231513 68 306 0.9 4.3 0.00 0.00 0.00 40 1019.0
20260503230006 70 330 0.9 3.5 0.00 0.00 0.00 38 1019.0
20260503224509 71 21 0.9 4.3 0.00 0.00 0.00 38 1019.1
20260503223003 72 76 0.9 3.5 0.00 0.00 0.00 37 1019.2
20260503221501 71 314 0.9 4.3 0.00 0.00 0.00 36 1019.1
20260503220122 71 281 0.9 3.5 0.00 0.00 0.00 35 1019.2
20260503214557 71 354 0.9 4.3 0.00 0.00 0.00 36 1019.3
20260503213057 72 107 0.0 2.6 0.00 0.00 0.00 35 1019.4
20260503211555 72 302 0.0 4.3 0.00 0.00 0.00 36 1019.5
20260503210051 71 19 0.9 2.6 0.00 0.00 0.00 35 1019.6
20260503204548 71 287 0.0 4.3 0.00 0.00 0.00 36 1019.7
20260503203052 70 22 0.0 4.3 0.00 0.00 0.00 35 1020.0
20260503201545 70 271 0.9 4.3 0.00 0.00 0.00 36 1020.3
20260503200038 68 292 0.9 5.2 0.00 0.00 0.00 39 1020.5
20260503194534 67 299 1.7 4.3 0.00 0.00 0.00 39 1020.8
20260503193033 67 288 1.7 5.2 0.00 0.00 0.00 39 1021.0
20260503191537 67 301 0.9 4.3 0.00 0.00 0.00 40 1021.5
20260503190031 67 7 0.0 4.3 0.00 0.00 0.00 40 1021.6
20260503184530 67 98 0.9 2.6 0.00 0.00 0.00 41 1021.7
20260503183029 67 257 0.0 3.5 0.00 0.00 0.00 41 1021.9
20260503181527 66 119 0.0 4.3 0.00 0.00 0.00 42 1022.2
20260503180037 66 285 1.7 4.3 0.00 0.00 0.00 41 1022.2
20260503174523 65 271 1.7 5.2 0.00 0.00 0.00 41 1022.2
20260503173023 64 262 0.9 6.1 0.00 0.00 0.00 43 1022.4
20260503171525 65 10 0.9 3.5 0.00 0.00 0.00 42 1022.6